FLOCK 2E'-7

Last updated on Oct. 4, 2017, 12:15 a.m. UTC

1 41570U 98067JU  17276.23066052  .07821693  11956-4  21580-2 0  9994
2 41570  51.6314 172.6072 0011089 233.3572 126.6600 16.26996484 76726

Satellite is not in orbit.